• In Deutschland
  • Länderverzeichnis
  • Für 7 Tage
  • Wassertemperatur
  • Satellitenkarten
  • Wetterkarte
  • Widgets
  • user-avatar
    Anmelden

    Stündliche Wetter Winnenden

    Heute, 17 Oktober, Dienstag

    Zeit Temperatur Niederschläge Wind Luftdruck Luftfeuchtigkeit
    00:00 +15°C° 0 mm 2 m/S 743 mmHg 76%
    01:00 +14°C° 0 mm 2 m/S 743 mmHg 76%
    02:00 +14°C° 0 mm 1 m/S 742 mmHg 75%
    03:00 +14°C° 0 mm 1 m/S 742 mmHg 75%
    04:00 +13°C° 0 mm 1 m/S 742 mmHg 75%
    05:00 +13°C° 0 mm 1 m/S 742 mmHg 75%
    06:00 +13°C° 0 mm 1 m/S 742 mmHg 74%
    07:00 +12°C° 0 mm 1 m/S 742 mmHg 74%
    08:00 +15°C° 0 mm 1 m/S 742 mmHg 68%
    09:00 +18°C° 0 mm 1 m/S 742 mmHg 62%
    10:00 +20°C° 0 mm 1 m/S 742 mmHg 55%
    11:00 +19°C° 0 mm 0 m/S 742 mmHg 52%
    12:00 +21°C° 0 mm 0 m/S 742 mmHg 49%
    13:00 +22°C° 0 mm 0 m/S 741 mmHg 45%
    14:00 +22°C° 0 mm 0 m/S 741 mmHg 49%
    15:00 +21°C° 0 mm 0 m/S 740 mmHg 53%
    16:00 +21°C° 0 mm 0 m/S 739 mmHg 57%
    17:00 +18°C° 0 mm 0 m/S 739 mmHg 63%
    18:00 +16°C° 0 mm 0 m/S 739 mmHg 68%
    19:00 +14°C° 0 mm 0 m/S 739 mmHg 73%
    20:00 +14°C° 0 mm 0 m/S 739 mmHg 75%
    21:00 +14°C° 0 mm 1 m/S 739 mmHg 77%
    22:00 +14°C° 0 mm 1 m/S 739 mmHg 78%
    23:00 +14°C° 0 mm 1 m/S 739 mmHg 79%

    Morgen, 18 Oktober, Mittwoch

    Zeit Temperatur Niederschläge Wind Luftdruck Luftfeuchtigkeit
    00:00 +13°C° 0 mm 1 m/S 738 mmHg 79%
    01:00 +13°C° 0 mm 1 m/S 738 mmHg 80%
    02:00 +13°C° 0 mm 1 m/S 738 mmHg 79%
    03:00 +13°C° 0 mm 1 m/S 738 mmHg 79%
    04:00 +12°C° 0 mm 1 m/S 737 mmHg 79%
    05:00 +12°C° 0 mm 1 m/S 737 mmHg 78%
    06:00 +12°C° 0 mm 1 m/S 737 mmHg 78%
    07:00 +12°C° 0 mm 1 m/S 737 mmHg 77%
    08:00 +14°C° 0 mm 1 m/S 737 mmHg 70%
    09:00 +16°C° 0 mm 1 m/S 737 mmHg 64%
    10:00 +17°C° 0 mm 0 m/S 737 mmHg 57%
    11:00 +20°C° 0 mm 1 m/S 737 mmHg 53%
    12:00 +21°C° 0 mm 1 m/S 737 mmHg 49%
    13:00 +23°C° 0 mm 1 m/S 737 mmHg 45%
    14:00 +22°C° 0 mm 1 m/S 736 mmHg 49%
    15:00 +22°C° 0 mm 1 m/S 736 mmHg 54%
    16:00 +21°C° 0 mm 1 m/S 736 mmHg 58%
    17:00 +19°C° 0 mm 1 m/S 736 mmHg 62%
    18:00 +16°C° 0 mm 1 m/S 736 mmHg 67%
    19:00 +14°C° 0 mm 1 m/S 736 mmHg 71%
    20:00 +14°C° 0 mm 1 m/S 736 mmHg 73%
    21:00 +13°C° 0 mm 1 m/S 736 mmHg 74%
    22:00 +13°C° 0 mm 1 m/S 736 mmHg 76%
    23:00 +13°C° 0 mm 1 m/S 736 mmHg 76%

    übermorgen, 19 Oktober, Donnerstag

    Zeit Temperatur Niederschläge Wind Luftdruck Luftfeuchtigkeit
    00:00 +13°C° 0 mm 1 m/S 736 mmHg 77%
    01:00 +12°C° 0 mm 1 m/S 736 mmHg 78%
    02:00 +12°C° 0 mm 1 m/S 736 mmHg 78%
    03:00 +12°C° 0 mm 1 m/S 736 mmHg 78%
    04:00 +12°C° 0 mm 1 m/S 735 mmHg 78%
    05:00 +12°C° 0 mm 1 m/S 735 mmHg 78%
    06:00 +11°C° 0 mm 1 m/S 735 mmHg 77%
    07:00 +11°C° 0 mm 1 m/S 735 mmHg 77%
    08:00 +13°C° 0 mm 1 m/S 735 mmHg 70%
    09:00 +16°C° 0 mm 1 m/S 736 mmHg 64%
    10:00 +19°C° 0 mm 1 m/S 736 mmHg 58%
    11:00 +20°C° 0 mm 1 m/S 736 mmHg 54%
    12:00 +21°C° 0 mm 1 m/S 736 mmHg 51%
    13:00 +23°C° 0 mm 1 m/S 736 mmHg 48%
    14:00 +22°C° 0 mm 1 m/S 735 mmHg 52%
    15:00 +22°C° 0 mm 1 m/S 735 mmHg 56%
    16:00 +21°C° 0 mm 1 m/S 735 mmHg 60%
    17:00 +19°C° 0 mm 1 m/S 735 mmHg 64%
    18:00 +18°C° 0 mm 1 m/S 735 mmHg 68%
    19:00 +15°C° 0 mm 2 m/S 735 mmHg 72%
    20:00 +15°C° 0 mm 2 m/S 735 mmHg 72%
    21:00 +14°C° 0 mm 2 m/S 735 mmHg 71%
    22:00 +14°C° 0 mm 2 m/S 735 mmHg 71%
    23:00 +14°C° 0 mm 2 m/S 735 mmHg 68%

    20 Oktober, Freitag

    Zeit Temperatur Niederschläge Wind Luftdruck Luftfeuchtigkeit
    00:00 +15°C° 0 mm 2 m/S 735 mmHg 65%
    01:00 +15°C° 0 mm 2 m/S 735 mmHg 62%
    02:00 +15°C° 0 mm 2 m/S 735 mmHg 61%
    03:00 +15°C° 0 mm 2 m/S 735 mmHg 59%
    04:00 +16°C° 0 mm 2 m/S 735 mmHg 58%
    05:00 +16°C° 0 mm 3 m/S 736 mmHg 59%
    06:00 +16°C° 0 mm 3 m/S 736 mmHg 61%
    07:00 +16°C° 0 mm 3 m/S 736 mmHg 63%
    08:00 +17°C° 0 mm 4 m/S 736 mmHg 63%
    09:00 +18°C° 0 mm 4 m/S 737 mmHg 63%
    10:00 +19°C° 0 mm 5 m/S 737 mmHg 63%
    11:00 +20°C° 0 mm 5 m/S 737 mmHg 61%
    12:00 +20°C° 0 mm 5 m/S 737 mmHg 58%
    13:00 +21°C° 0 mm 5 m/S 737 mmHg 56%
    14:00 +21°C° 0 mm 4 m/S 737 mmHg 59%
    15:00 +21°C° 0 mm 3 m/S 737 mmHg 62%
    16:00 +20°C° 0 mm 2 m/S 737 mmHg 65%
    17:00 +19°C° 0 mm 2 m/S 737 mmHg 70%
    18:00 +18°C° 0 mm 1 m/S 737 mmHg 76%
    19:00 +15°C° 0 mm 1 m/S 737 mmHg 81%
    20:00 +15°C° 0 mm 1 m/S 737 mmHg 81%
    21:00 +15°C° 0 mm 2 m/S 737 mmHg 82%
    22:00 +15°C° 0 mm 2 m/S 737 mmHg 82%
    23:00 +14°C° 0 mm 2 m/S 737 mmHg 81%

    21 Oktober, Samstag

    Zeit Temperatur Niederschläge Wind Luftdruck Luftfeuchtigkeit
    00:00 +14°C° 0 mm 2 m/S 737 mmHg 80%
    01:00 +14°C° 0 mm 2 m/S 737 mmHg 79%
    02:00 +14°C° 0 mm 2 m/S 737 mmHg 76%
    03:00 +13°C° 0 mm 3 m/S 737 mmHg 74%
    04:00 +14°C° 0 mm 3 m/S 737 mmHg 71%
    05:00 +13°C° 0 mm 3 m/S 736 mmHg 72%
    06:00 +13°C° 0 mm 3 m/S 736 mmHg 73%
    07:00 +13°C° 0 mm 3 m/S 736 mmHg 73%
    08:00 +16°C° 0 mm 3 m/S 736 mmHg 68%
    09:00 +18°C° 0 mm 4 m/S 736 mmHg 63%
    10:00 +19°C° 0 mm 4 m/S 736 mmHg 58%
    11:00 +20°C° 0,1 mm 4 m/S 736 mmHg 58%
    12:00 +20°C° 0,1 mm 4 m/S 736 mmHg 58%
    13:00 +21°C° 0,1 mm 5 m/S 735 mmHg 57%
    14:00 +20°C° 0,2 mm 4 m/S 736 mmHg 65%
    15:00 +19°C° 0,2 mm 4 m/S 736 mmHg 73%
    16:00 +18°C° 0,2 mm 3 m/S 736 mmHg 81%
    17:00 +17°C° 0,8 mm 3 m/S 736 mmHg 85%
    18:00 +16°C° 0,8 mm 3 m/S 736 mmHg 89%
    19:00 +15°C° 0,8 mm 2 m/S 737 mmHg 93%
    20:00 +15°C° 0,6 mm 2 m/S 737 mmHg 92%
    21:00 +14°C° 0,6 mm 2 m/S 737 mmHg 91%
    22:00 +14°C° 0,6 mm 2 m/S 737 mmHg 91%
    23:00 +13°C° 0,4 mm 2 m/S 737 mmHg 91%

    22 Oktober, Sonntag

    Zeit Temperatur Niederschläge Wind Luftdruck Luftfeuchtigkeit
    00:00 +12°C° 0,4 mm 3 m/S 737 mmHg 90%
    01:00 +11°C° 0,4 mm 3 m/S 737 mmHg 90%
    02:00 +11°C° 0,3 mm 3 m/S 737 mmHg 90%
    03:00 +11°C° 0,3 mm 3 m/S 737 mmHg 90%
    04:00 +11°C° 0,3 mm 4 m/S 737 mmHg 90%
    05:00 +11°C° 0,1 mm 4 m/S 737 mmHg 89%
    06:00 +10°C° 0,1 mm 4 m/S 737 mmHg 89%
    07:00 +10°C° 0,1 mm 4 m/S 737 mmHg 89%
    08:00 +10°C° 0 mm 4 m/S 737 mmHg 84%
    09:00 +10°C° 0 mm 5 m/S 738 mmHg 80%
    10:00 +10°C° 0 mm 6 m/S 738 mmHg 76%
    11:00 +10°C° 0,1 mm 6 m/S 738 mmHg 71%
    12:00 +11°C° 0,1 mm 6 m/S 738 mmHg 66%
    13:00 +11°C° 0,1 mm 6 m/S 738 mmHg 61%
    14:00 +11°C° 0 mm 6 m/S 738 mmHg 62%
    15:00 +11°C° 0 mm 6 m/S 738 mmHg 62%
    16:00 +10°C° 0 mm 5 m/S 738 mmHg 62%
    17:00 +9°C° 0 mm 5 m/S 739 mmHg 65%
    18:00 +8°C° 0 mm 4 m/S 739 mmHg 68%
    19:00 +7°C° 0 mm 4 m/S 740 mmHg 72%
    20:00 +7°C° 0 mm 4 m/S 740 mmHg 72%
    21:00 +7°C° 0 mm 5 m/S 740 mmHg 71%
    22:00 +7°C° 0 mm 5 m/S 740 mmHg 71%
    23:00 +7°C° 0,1 mm 5 m/S 740 mmHg 73%
    Mehr zeigen